When you browse on this site, cookies collect data to enhance your experience and personalize the content and advertising you see.
Visit our Privacy Policy to learn more. By continuing to use the site, you agree to this use of cookies and data.
  • In Austria
  • List of Countries
  • For 7 days
  • Water Temperature
  • Satellite Maps
  • Weather Map
  • News
  • Weather Widgets
  • user-avatar
    Login

    Hourly Weather Saidpur

    Today, 22 April, Monday

    Time Temperature Precipitation Wind Pressure Humidity
    00:00 +30°C° 0 mm 3 mps 752 mmHg 47%
    01:00 +29°C° 0.4 mm 3 mps 752 mmHg 50%
    02:00 +29°C° 0.4 mm 2 mps 752 mmHg 53%
    03:00 +28°C° 0.4 mm 2 mps 752 mmHg 57%
    04:00 +28°C° 0 mm 2 mps 752 mmHg 58%
    05:00 +27°C° 0 mm 2 mps 752 mmHg 59%
    06:00 +27°C° 0 mm 3 mps 752 mmHg 65%
    07:00 +28°C° 0.3 mm 4 mps 752 mmHg 60%
    08:00 +29°C° 0.3 mm 4 mps 753 mmHg 56%
    09:00 +32°C° 0.3 mm 4 mps 753 mmHg 51%
    10:00 +33°C° 0 mm 4 mps 753 mmHg 47%
    11:00 +35°C° 0 mm 3 mps 752 mmHg 42%
    12:00 +36°C° 0 mm 3 mps 752 mmHg 37%
    13:00 +37°C° 0 mm 2 mps 752 mmHg 35%
    14:00 +37°C° 0 mm 1 mps 751 mmHg 32%
    15:00 +39°C° 0 mm 1 mps 750 mmHg 29%
    16:00 +39°C° 0 mm 1 mps 750 mmHg 30%
    17:00 +35°C° 0 mm 0 mps 750 mmHg 30%
    18:00 +35°C° 0 mm 0 mps 750 mmHg 31%
    19:00 +36°C° 0 mm 1 mps 751 mmHg 33%
    20:00 +35°C° 0 mm 1 mps 751 mmHg 35%
    21:00 +35°C° 0 mm 2 mps 752 mmHg 37%
    22:00 +33°C° 0 mm 3 mps 752 mmHg 41%
    23:00 +32°C° 0 mm 4 mps 752 mmHg 46%

    Tomorrow, 23 April, Tuesday

    Time Temperature Precipitation Wind Pressure Humidity
    00:00 +30°C° 0 mm 6 mps 752 mmHg 50%
    01:00 +30°C° 0 mm 5 mps 752 mmHg 53%
    02:00 +29°C° 0 mm 5 mps 752 mmHg 57%
    03:00 +28°C° 0 mm 5 mps 752 mmHg 60%
    04:00 +27°C° 0.6 mm 5 mps 752 mmHg 62%
    05:00 +27°C° 0.6 mm 5 mps 752 mmHg 64%
    06:00 +26°C° 0.6 mm 4 mps 753 mmHg 67%
    07:00 +28°C° 0.4 mm 4 mps 753 mmHg 63%
    08:00 +29°C° 0.4 mm 4 mps 754 mmHg 60%
    09:00 +30°C° 0.4 mm 4 mps 754 mmHg 56%
    10:00 +33°C° 0 mm 4 mps 754 mmHg 50%
    11:00 +35°C° 0 mm 4 mps 754 mmHg 44%
    12:00 +37°C° 0 mm 4 mps 754 mmHg 38%
    13:00 +38°C° 0 mm 3 mps 753 mmHg 35%
    14:00 +39°C° 0 mm 2 mps 752 mmHg 32%
    15:00 +40°C° 0 mm 1 mps 752 mmHg 30%
    16:00 +39°C° 0 mm 1 mps 751 mmHg 31%
    17:00 +39°C° 0 mm 1 mps 751 mmHg 32%
    18:00 +37°C° 0 mm 1 mps 751 mmHg 32%
    19:00 +36°C° 0.4 mm 2 mps 752 mmHg 37%
    20:00 +35°C° 0.4 mm 2 mps 752 mmHg 42%
    21:00 +32°C° 0.4 mm 2 mps 753 mmHg 47%
    22:00 +32°C° 0.4 mm 2 mps 753 mmHg 50%
    23:00 +31°C° 0.4 mm 3 mps 753 mmHg 53%

    Day after tomorrow, 24 April, Wednesday

    Time Temperature Precipitation Wind Pressure Humidity
    00:00 +31°C° 0.4 mm 3 mps 754 mmHg 56%
    01:00 +30°C° 0 mm 3 mps 753 mmHg 57%
    02:00 +30°C° 0 mm 3 mps 753 mmHg 59%
    03:00 +29°C° 0 mm 3 mps 752 mmHg 61%
    04:00 +29°C° 0.1 mm 3 mps 753 mmHg 62%
    05:00 +28°C° 0.1 mm 3 mps 753 mmHg 64%
    06:00 +28°C° 0.1 mm 3 mps 753 mmHg 65%
    07:00 +30°C° 0 mm 3 mps 754 mmHg 59%
    08:00 +33°C° 0 mm 3 mps 754 mmHg 52%
    09:00 +35°C° 0 mm 4 mps 755 mmHg 45%
    10:00 +36°C° 0 mm 3 mps 755 mmHg 41%
    11:00 +37°C° 0 mm 3 mps 754 mmHg 37%
    12:00 +39°C° 0 mm 3 mps 754 mmHg 33%
    13:00 +39°C° 0 mm 2 mps 753 mmHg 31%
    14:00 +40°C° 0 mm 2 mps 752 mmHg 29%
    15:00 +41°C° 0 mm 2 mps 751 mmHg 27%
    16:00 +40°C° 0 mm 1 mps 751 mmHg 28%
    17:00 +40°C° 0 mm 1 mps 750 mmHg 30%
    18:00 +39°C° 0 mm 1 mps 750 mmHg 31%
    19:00 +38°C° 0 mm 2 mps 751 mmHg 33%
    20:00 +37°C° 0 mm 2 mps 751 mmHg 36%
    21:00 +36°C° 0 mm 3 mps 752 mmHg 39%
    22:00 +35°C° 0 mm 3 mps 752 mmHg 40%
    23:00 +34°C° 0 mm 3 mps 752 mmHg 42%

    25 April, Thursday

    Time Temperature Precipitation Wind Pressure Humidity
    00:00 +34°C° 0 mm 3 mps 752 mmHg 43%
    01:00 +32°C° 0 mm 2 mps 752 mmHg 45%
    02:00 +32°C° 0 mm 2 mps 751 mmHg 47%
    03:00 +31°C° 0 mm 2 mps 751 mmHg 48%
    04:00 +31°C° 0 mm 2 mps 751 mmHg 49%
    05:00 +30°C° 0 mm 2 mps 752 mmHg 50%
    06:00 +30°C° 0 mm 2 mps 752 mmHg 51%
    07:00 +32°C° 0.2 mm 2 mps 753 mmHg 48%
    08:00 +34°C° 0.2 mm 2 mps 753 mmHg 46%
    09:00 +36°C° 0.2 mm 2 mps 754 mmHg 43%
    10:00 +38°C° 0 mm 2 mps 754 mmHg 39%
    11:00 +39°C° 0 mm 2 mps 753 mmHg 36%
    12:00 +41°C° 0 mm 2 mps 753 mmHg 32%
    13:00 +41°C° 0 mm 2 mps 752 mmHg 30%
    14:00 +42°C° 0 mm 2 mps 751 mmHg 28%
    15:00 +42°C° 0 mm 2 mps 750 mmHg 26%
    16:00 +42°C° 0 mm 1 mps 749 mmHg 27%
    17:00 +42°C° 0 mm 1 mps 749 mmHg 27%
    18:00 +39°C° 0 mm 0 mps 749 mmHg 28%
    19:00 +40°C° 0 mm 1 mps 749 mmHg 30%
    20:00 +39°C° 0 mm 2 mps 750 mmHg 33%
    21:00 +38°C° 0 mm 3 mps 750 mmHg 35%
    22:00 +37°C° 0 mm 3 mps 750 mmHg 37%
    23:00 +36°C° 0 mm 2 mps 750 mmHg 40%

    26 April, Friday

    Time Temperature Precipitation Wind Pressure Humidity
    00:00 +35°C° 0 mm 2 mps 751 mmHg 42%
    01:00 +35°C° 0 mm 2 mps 750 mmHg 44%
    02:00 +34°C° 0 mm 2 mps 750 mmHg 46%
    03:00 +34°C° 0 mm 2 mps 750 mmHg 48%
    04:00 +32°C° 0 mm 2 mps 750 mmHg 50%
    05:00 +32°C° 0 mm 2 mps 750 mmHg 52%
    06:00 +31°C° 0 mm 2 mps 750 mmHg 55%
    07:00 +33°C° 0 mm 3 mps 751 mmHg 54%
    08:00 +34°C° 0 mm 3 mps 752 mmHg 53%
    09:00 +34°C° 0 mm 3 mps 752 mmHg 52%
    10:00 +36°C° 0 mm 3 mps 752 mmHg 46%
    11:00 +38°C° 0 mm 3 mps 751 mmHg 41%
    12:00 +41°C° 0 mm 4 mps 751 mmHg 35%
    13:00 +42°C° 0 mm 3 mps 750 mmHg 32%
    14:00 +42°C° 0 mm 2 mps 749 mmHg 28%
    15:00 +43°C° 0 mm 2 mps 748 mmHg 25%
    16:00 +42°C° 0 mm 2 mps 748 mmHg 26%
    17:00 +42°C° 0 mm 2 mps 748 mmHg 27%
    18:00 +42°C° 0 mm 1 mps 748 mmHg 28%
    19:00 +40°C° 0 mm 3 mps 749 mmHg 33%
    20:00 +38°C° 0 mm 4 mps 749 mmHg 37%
    21:00 +36°C° 0 mm 5 mps 750 mmHg 41%
    22:00 +36°C° 0 mm 4 mps 750 mmHg 43%
    23:00 +35°C° 0 mm 4 mps 750 mmHg 45%

    27 April, Saturday

    Time Temperature Precipitation Wind Pressure Humidity
    00:00 +35°C° 0 mm 3 mps 750 mmHg 46%
    01:00 +34°C° 0 mm 3 mps 749 mmHg 48%
    02:00 +34°C° 0 mm 2 mps 749 mmHg 49%
    03:00 +32°C° 0 mm 2 mps 749 mmHg 50%
    04:00 +32°C° 0 mm 2 mps 749 mmHg 54%
    05:00 +32°C° 0 mm 2 mps 749 mmHg 58%
    06:00 +31°C° 0 mm 2 mps 750 mmHg 63%
    07:00 +34°C° 0 mm 2 mps 750 mmHg 59%
    08:00 +35°C° 0 mm 2 mps 751 mmHg 55%
    09:00 +36°C° 0 mm 2 mps 751 mmHg 52%
    10:00 +38°C° 0 mm 3 mps 751 mmHg 47%
    11:00 +39°C° 0 mm 3 mps 751 mmHg 42%
    12:00 +42°C° 0 mm 3 mps 750 mmHg 38%
    13:00 +43°C° 0 mm 3 mps 749 mmHg 34%
    14:00 +43°C° 0 mm 2 mps 748 mmHg 31%
    15:00 +45°C° 0 mm 2 mps 747 mmHg 27%
    16:00 +45°C° 0 mm 2 mps 747 mmHg 26%
    17:00 +43°C° 0 mm 2 mps 747 mmHg 25%
    18:00 +43°C° 0 mm 1 mps 746 mmHg 24%
    19:00 +41°C° 0 mm 2 mps 747 mmHg 29%
    20:00 +40°C° 0 mm 3 mps 748 mmHg 34%
    21:00 +39°C° 0 mm 5 mps 748 mmHg 39%
    22:00 +37°C° 0 mm 5 mps 748 mmHg 42%
    23:00 +36°C° 0 mm 4 mps 748 mmHg 45%
    Show more